Temp
-8 -8 -8 -8 -8 -8 -8 -8 -8 -8 -8 -9 -9 -10 -10 -10 -10 -10 -10 -10 -11 -10 -10 -10 -9 -9 -9 -9 -10 -10 -10 -11 -10 -10 -10 -10 -10 -9 -9 -9 -8 -8 -8 -8 -8
-8 -8 -8 -8 -8 -9 -8 -8 -8 -8 -8 -8 -9 -9 -10 -10 -10 -10 -10 -10 -10 -10 -10 -10 -9 -9 -9 -10 -10 -10 -11 -11 -10 -10 -10 -10 -10 -9 -9 -9 -8 -8 -8 -8 -8
-8 -8 -8 -8 -8 -9 -8 -8 -8 -8 -8 -8 -9 -9 -10 -10 -10 -10 -10 -10 -10 -10 -10 -10 -9 -9 -9 -10 -10 -10 -10 -10 -10 -10 -10 -10 -10 -9 -9 -9 -9 -8 -8 -8 -9
-8 -8 -8 -8 -8 -8 -9 -8 -8 -8 -8 -8 -8 -9 -9 -9 -10 -10 -10 -10 -10 -10 -10 -10 -10 -9 -9 -9 -10 -10 -10 -10 -10 -10 -10 -10 -10 -9 -9 -9 -9 -9 -8 -8 -9
-8 -8 -8 -8 -8 -8 -8 -8 -8 -8 -8 -8 -8 -8 -9 -9 -9 -9 -10 -10 -10 -10 -10 -10 -10 -9 -9 -9 -10 -10 -10 -9 -9 -9 -10 -10 -9 -9 -9 -8 -8 -8 -8 -8 -9
-8 -8 -8 -8 -8 -8 -8 -8 -8 -8 -8 -8 -8 -8 -8 -9 -9 -9 -9 -9 -10 -10 -10 -10 -10 -9 -9 -9 -9 -9 -9 -9 -9 -9 -9 -9 -9 -9 -9 -8 -8 -8 -8 -8 -8
-8 -8 -8 -8 -8 -8 -8 -8 -8 -8 -8 -8 -8 -8 -8 -8 -9 -9 -9 -9 -9 -10 -10 -10 -10 -9 -9 -9 -9 -9 -9 -9 -9 -9 -9 -9 -9 -8 -8 -7 -7 -8 -8 -8 -8
-8 -8 -7 -8 -8 -8 -8 -8 -8 -8 -8 -8 -8 -8 -8 -8 -8 -8 -9 -9 -9 -9 -9 -10 -10 -9 -9 -9 -9 -9 -9 -9 -9 -9 -9 -8 -8 -8 -8 -7 -7 -8 -8 -8 -8
-7 -8 -8 -8 -8 -8 -8 -8 -8 -8 -8 -8 -8 -8 -8 -8 -8 -8 -8 -9 -9 -9 -9 -9 -9 -9 -9 -9 -9 -9 -9 -9 -9 -9 -9 -8 -8 -7 -8 -7 -7 -7 -7 -8 -8
-7 -7 -7 -8 -7 -7 -7 -7 -8 -8 -8 -8 -8 -8 -8 -8 -8 -8 -8 -8 -9 -9 -9 -9 -9 -9 -9 -9 -9 -9 -9 -9 -9 -9 -8 -8 -8 -8 -7 -7 -7 -7 -7 -8 -8
-8 -7 -8 -8 -7 -7 -7 -7 -7 -7 -7 -8 -8 -8 -8 -8 -8 -8 -8 -8 -8 -8 -9 -8 -8 -9 -9 -9 -9 -9 -9 -9 -9 -8 -8 -8 -8 -8 -7 -7 -7 -8 -8 -8 -8
-7 -7 -7 -8 -7 -7 -7 -7 -7 -8 -7 -7 -8 -8 -8 -8 -8 -8 -8 -8 -8 -8 -8 -8 -8 -8 -8 -8 -8 -9 -9 -9 -9 -8 -8 -8 -8 -8 -8 -8 -8 -8 -8 -8 -8
-7 -7 -7 -7 -7 -7 -7 -8 -8 -8 -7 -8 -7 -8 -8 -8 -8 -8 -8 -8 -8 -8 -8 -8 -8 -8 -8 -8 -8 -8 -8 -8 -8 -8 -8 -8 -8 -8 -8 -8 -8 -8 -8 -8 -8
-7 -7 -8 -8 -8 -8 -8 -8 -8 -8 -8 -8 -8 -8 -8 -8 -8 -8 -8 -8 -8 -8 -8 -8 -8 -8 -8 -8 -8 -8 -8 -8 -8 -8 -8 -8 -9 -8 -8 -8 -8 -8 -8 -8 -8
-8 -8 -8 -8 -8 -8 -8 -8 -8 -8 -8 -8 -8 -8 -8 -8 -8 -8 -8 -8 -8 -8 -8 -8 -8 -8 -8 -8 -8 -8 -8 -8 -8 -8 -8 -8 -8 -8 -8 -8 -8 -8 -8 -8 -8
-8 -8 -8 -8 -8 -8 -8 -9 -9 -9 -9 -9 -9 -9 -9 -8 -8 -8 -8 -8 -8 -8 -8 -8 -8 -8 -8 -8 -8 -8 -8 -8 -8 -8 -8 -8 -8 -8 -8 -8 -8 -8 -8 -8 -8
-9 -9 -9 -9 -9 -9 -9 -9 -9 -9 -9 -9 -9 -9 -9 -9 -9 -9 -9 -8 -8 -8 -8 -8 -8 -8 -8 -8 -8 -8 -8 -8 -8 -8 -8 -8 -8 -8 -8 -8 -8 -8 -8 -8 -7
-9 -9 -9 -9 -9 -9 -9 -9 -9 -9 -9 -9 -9 -9 -9 -9 -9 -9 -9 -9 -9 -8 -8 -9 -8 -8 -8 -8 -9 -9 -9 -8 -8 -8 -8 -9 -9 -8 -8 -8 -8 -8 -8 -7 -7
-10 -10 -10 -10 -10 -10 -10 -9 -9 -10 -10 -9 -10 -9 -9 -9 -10 -10 -10 -9 -9 -9 -9 -9 -9 -9 -9 -8 -8 -9 -9 -9 -8 -8 -8 -9 -9 -9 -8 -8 -8 -8 -8 -7 -7
-10 -10 -10 -10 -10 -10 -10 -10 -10 -10 -10 -10 -10 -10 -10 -10 -10 -10 -10 -10 -10 -9 -9 -9 -9 -9 -9 -9 -9 -9 -9 -9 -9 -8 -9 -9 -9 -9 -9 -8 -8 -8 -8 -7 -7
-11 -11 -11 -11 -11 -11 -11 -11 -11 -11 -11 -11 -11 -11 -11 -11 -11 -11 -10 -10 -10 -10 -10 -10 -10 -9 -10 -10 -9 -9 -9 -9 -9 -9 -9 -9 -9 -9 -9 -9 -9 -8 -8 -8 -7
-11 -11 -12 -12 -11 -11 -11 -12 -12 -12 -12 -12 -12 -12 -12 -12 -12 -11 -11 -11 -11 -11 -11 -10 -10 -10 -10 -10 -10 -10 -10 -9 -9 -9 -8 -9 -9 -10 -10 -10 -10 -10 -9 -8 -8
-12 -12 -12 -12 -12 -12 -12 -12 -12 -12 -12 -12 -12 -12 -12 -12 -12 -12 -12 -12 -11 -11 -11 -11 -11 -11 -10 -10 -10 -10 -10 -10 -10 -10 -9 -9 -9 -10 -10 -10 -10 -9 -9 -8 -8
-12 -12 -12 -12 -12 -13 -13 -13 -13 -13 -13 -13 -13 -12 -12 -12 -12 -12 -12 -12 -12 -12 -12 -12 -11 -11 -11 -11 -10 -10 -10 -10 -10 -10 -10 -9 -9 -10 -11 -10 -10 -9 -9 -9 -8
-13 -13 -13 -13 -13 -13 -13 -13 -13 -13 -13 -13 -13 -13 -13 -13 -13 -12 -12 -12 -12 -12 -12 -12 -12 -12 -12 -11 -11 -11 -11 -11 -10 -10 -10 -10 -10 -10 -10 -10 -9 -9 -9 -9 -9
-14 -14 -14 -13 -13 -14 -14 -14 -14 -13 -13 -13 -13 -13 -13 -13 -13 -13 -13 -13 -13 -13 -13 -13 -12 -12 -12 -12 -12 -11 -11 -11 -11 -11 -11 -11 -10 -10 -10 -10 -10 -9 -9 -9 -9
-14 -14 -14 -14 -14 -14 -14 -14 -14 -14 -14 -14 -14 -14 -14 -14 -14 -14 -13 -13 -13 -13 -14 -13 -13 -13 -12 -12 -12 -12 -12 -12 -11 -11 -11 -11 -11 -10 -10 -10 -10 -10 -10 -9 -9
Height
5878 5877 5876 5874 5871 5869 5868 5866 5865 5864 5864 5863 5864 5864 5865 5865 5865 5864 5863 5862 5859 5856 5853 5850 5848 5847 5846 5844 5841 5839 5840 5843 5849 5854 5858 5862 5866 5869 5871 5873 5874 5875 5877 5878 5880
5878 5877 5876 5874 5871 5868 5867 5866 5865 5865 5864 5864 5864 5864 5864 5864 5864 5863 5862 5860 5857 5855 5852 5849 5847 5844 5843 5841 5839 5837 5837 5841 5846 5850 5854 5859 5863 5866 5869 5871 5872 5873 5875 5876 5877
5878 5877 5875 5874 5871 5868 5867 5866 5865 5865 5865 5865 5864 5864 5864 5863 5863 5862 5861 5859 5856 5854 5851 5847 5845 5843 5841 5839 5838 5836 5837 5841 5844 5848 5852 5856 5860 5864 5866 5868 5870 5870 5872 5874 5876
5877 5877 5875 5873 5871 5868 5866 5866 5865 5865 5864 5864 5864 5864 5863 5862 5863 5861 5860 5858 5855 5852 5849 5846 5843 5841 5840 5839 5838 5837 5838 5840 5843 5846 5850 5854 5858 5861 5863 5864 5867 5868 5870 5872 5874
5877 5876 5875 5873 5871 5869 5867 5865 5865 5864 5864 5864 5863 5863 5862 5862 5861 5860 5858 5857 5854 5852 5848 5846 5843 5840 5839 5838 5838 5837 5837 5839 5841 5844 5847 5851 5854 5856 5861 5862 5864 5866 5867 5870 5872
5876 5875 5873 5872 5870 5869 5867 5865 5864 5863 5863 5862 5862 5862 5862 5861 5859 5858 5857 5855 5853 5851 5849 5846 5843 5840 5838 5837 5837 5837 5836 5837 5839 5842 5845 5849 5851 5856 5860 5859 5861 5864 5866 5868 5870
5874 5873 5872 5871 5870 5868 5867 5865 5863 5862 5861 5861 5861 5860 5860 5860 5858 5856 5855 5854 5852 5850 5848 5846 5843 5841 5839 5837 5837 5836 5836 5836 5837 5838 5842 5844 5849 5855 5851 5856 5860 5862 5863 5866 5868
5871 5871 5870 5870 5869 5868 5866 5864 5863 5861 5859 5859 5859 5859 5858 5857 5856 5855 5854 5853 5851 5849 5848 5845 5844 5841 5839 5837 5836 5836 5836 5836 5836 5836 5838 5841 5846 5847 5851 5855 5857 5859 5861 5863 5867
5869 5869 5868 5868 5867 5866 5865 5863 5862 5860 5858 5857 5858 5857 5857 5856 5855 5854 5853 5852 5850 5849 5847 5845 5844 5842 5840 5838 5837 5836 5836 5836 5836 5836 5836 5839 5840 5844 5847 5851 5854 5856 5859 5861 5864
5866 5866 5865 5865 5864 5864 5863 5862 5861 5859 5857 5856 5856 5857 5855 5855 5853 5852 5852 5851 5850 5848 5847 5845 5844 5842 5841 5840 5838 5837 5836 5835 5836 5837 5837 5839 5839 5843 5845 5848 5851 5854 5857 5859 5863
5862 5863 5863 5862 5862 5861 5861 5860 5861 5859 5856 5855 5855 5854 5853 5852 5851 5851 5850 5849 5849 5847 5846 5845 5844 5842 5841 5840 5839 5838 5837 5836 5835 5836 5836 5838 5839 5840 5841 5846 5848 5852 5855 5857 5861
5859 5859 5859 5859 5859 5859 5858 5858 5857 5857 5856 5854 5853 5852 5851 5850 5850 5849 5849 5848 5847 5846 5845 5845 5843 5842 5841 5840 5840 5839 5838 5837 5837 5837 5838 5838 5838 5840 5841 5842 5845 5848 5852 5855 5858
5854 5855 5856 5855 5855 5855 5855 5855 5855 5854 5854 5853 5852 5851 5850 5850 5848 5847 5847 5846 5845 5844 5843 5842 5842 5841 5840 5840 5839 5838 5838 5838 5838 5837 5837 5838 5837 5838 5839 5840 5842 5845 5849 5852 5856
5850 5850 5851 5851 5853 5852 5852 5852 5852 5851 5851 5852 5851 5850 5849 5848 5848 5846 5845 5845 5843 5843 5842 5841 5840 5839 5838 5838 5838 5837 5837 5837 5837 5837 5837 5838 5837 5837 5838 5839 5841 5843 5846 5850 5853
5845 5845 5846 5846 5847 5847 5848 5848 5848 5848 5848 5849 5848 5847 5846 5847 5846 5845 5844 5843 5842 5841 5841 5840 5838 5837 5836 5836 5835 5835 5834 5834 5835 5835 5836 5837 5836 5835 5836 5837 5839 5842 5845 5848 5851
5839 5839 5840 5840 5840 5841 5841 5842 5843 5845 5843 5844 5843 5843 5843 5843 5843 5842 5841 5841 5840 5839 5838 5837 5836 5834 5833 5832 5832 5832 5831 5831 5831 5832 5833 5833 5834 5833 5833 5834 5836 5838 5841 5843 5846
5831 5832 5832 5832 5834 5834 5835 5836 5836 5836 5838 5838 5837 5837 5837 5838 5838 5838 5837 5837 5837 5836 5835 5834 5833 5833 5831 5830 5829 5828 5828 5828 5828 5828 5829 5829 5829 5830 5830 5831 5833 5834 5837 5838 5841
5823 5823 5824 5824 5825 5826 5827 5828 5828 5829 5829 5829 5830 5829 5829 5830 5831 5831 5831 5831 5831 5831 5831 5831 5831 5829 5828 5827 5826 5825 5825 5824 5823 5824 5826 5825 5824 5824 5826 5827 5828 5830 5832 5835 5837
5815 5815 5815 5816 5816 5816 5818 5818 5818 5820 5820 5820 5820 5820 5822 5822 5823 5823 5823 5823 5824 5824 5826 5825 5825 5824 5824 5823 5823 5822 5821 5821 5819 5820 5821 5822 5820 5820 5820 5822 5824 5824 5825 5828 5830
5807 5807 5807 5807 5807 5808 5808 5809 5809 5810 5810 5811 5811 5811 5812 5813 5814 5814 5813 5814 5815 5816 5817 5818 5818 5819 5819 5818 5818 5817 5818 5816 5815 5815 5816 5817 5815 5816 5816 5817 5818 5819 5820 5820 5823
5798 5797 5798 5797 5797 5798 5798 5799 5799 5800 5801 5801 5801 5801 5803 5804 5804 5804 5804 5805 5806 5807 5808 5808 5809 5813 5812 5812 5811 5812 5811 5811 5810 5810 5809 5812 5813 5812 5812 5812 5812 5812 5812 5814 5816
5788 5788 5787 5787 5789 5788 5788 5788 5790 5790 5790 5790 5791 5792 5792 5794 5794 5794 5796 5796 5797 5798 5799 5799 5800 5802 5803 5803 5804 5804 5804 5803 5804 5805 5804 5805 5811 5807 5807 5806 5805 5804 5803 5806 5808
5778 5779 5778 5777 5777 5777 5777 5777 5777 5778 5779 5780 5780 5781 5782 5783 5783 5784 5785 5787 5788 5788 5788 5790 5789 5792 5794 5795 5795 5795 5796 5796 5795 5796 5798 5798 5805 5801 5800 5800 5797 5794 5797 5798 5800
5769 5768 5768 5767 5767 5766 5766 5766 5766 5767 5768 5768 5769 5770 5771 5772 5773 5773 5774 5775 5777 5777 5778 5777 5778 5781 5783 5783 5784 5786 5785 5785 5785 5786 5788 5789 5792 5794 5791 5788 5786 5789 5790 5792 5793
5758 5758 5756 5756 5756 5755 5755 5755 5754 5755 5756 5757 5757 5757 5758 5759 5760 5760 5761 5763 5764 5765 5765 5765 5766 5767 5769 5771 5771 5773 5774 5774 5773 5776 5773 5781 5777 5782 5777 5779 5781 5781 5783 5783 5783
5746 5747 5745 5744 5744 5743 5742 5743 5742 5742 5742 5743 5745 5745 5745 5745 5745 5747 5749 5750 5749 5752 5752 5752 5752 5753 5755 5756 5757 5758 5761 5762 5763 5763 5759 5761 5764 5762 5768 5770 5770 5771 5771 5772 5773
5733 5733 5732 5731 5730 5729 5728 5728 5728 5728 5729 5728 5729 5730 5731 5731 5731 5732 5733 5735 5736 5736 5735 5736 5736 5736 5741 5739 5740 5743 5746 5746 5747 5746 5746 5747 5746 5749 5753 5755 5757 5758 5760 5761 5762
Wind_Speed
5 6 8 11 12 11 8 7 5 6 3 0 2 3 4 2 4 6 9 11 13 14 12 11 10 10 11 14 13 14 16 23 27 29 30 24 22 20 18 15 13 10 10 12 14
5 7 10 13 14 11 8 5 5 5 5 3 2 0 1 2 4 6 9 11 13 14 13 11 9 8 10 10 8 7 11 21 25 28 30 27 23 21 19 16 13 10 11 14 16
5 7 10 13 15 12 7 5 4 3 3 4 2 1 1 3 5 7 9 11 12 14 14 13 10 8 8 10 5 3 10 17 20 25 28 28 26 23 20 17 13 10 11 14 17
5 8 10 12 14 15 8 5 3 3 3 4 4 4 4 4 6 8 9 10 12 13 14 14 11 9 8 8 6 4 9 14 17 21 25 27 28 26 21 20 15 12 12 15 17
4 7 9 12 13 13 11 5 4 5 5 5 6 7 7 8 7 8 10 10 11 12 13 13 12 9 8 8 7 5 7 13 16 19 25 29 31 30 21 22 17 16 14 16 18
8 10 10 11 12 11 12 9 5 5 6 6 6 7 8 9 8 8 9 10 11 12 13 12 11 10 9 8 8 6 5 10 14 19 23 29 33 29 23 26 20 18 15 16 18
12 11 11 10 10 10 9 11 8 7 7 7 7 8 7 8 7 8 7 9 10 10 12 12 11 10 8 8 7 7 6 5 9 15 21 31 33 27 34 27 18 19 17 16 19
13 11 10 9 9 8 8 8 10 8 8 8 7 8 7 8 8 8 7 8 9 10 10 11 11 10 8 6 6 6 6 7 8 13 19 21 26 36 36 29 24 23 19 17 19
12 11 9 9 10 8 8 7 8 11 8 7 7 7 7 8 7 8 8 8 8 9 10 10 9 9 8 7 5 4 5 6 7 6 12 15 24 26 31 32 28 25 21 19 20
11 11 10 9 10 9 9 9 7 8 9 6 7 7 7 7 8 8 8 8 8 9 9 9 9 8 8 7 6 4 4 4 5 7 9 9 17 18 23 27 27 25 20 19 21
12 12 9 9 10 10 10 11 9 6 7 8 7 6 7 7 7 8 8 8 7 7 8 8 8 7 6 6 6 6 4 2 1 4 6 6 13 14 22 21 23 21 20 21 21
14 14 13 12 13 12 12 10 10 6 4 5 6 5 7 7 7 8 9 9 9 8 8 9 8 9 8 7 6 6 5 3 1 2 5 6 9 8 11 15 19 21 21 23 24
16 15 14 14 13 14 14 11 11 9 5 4 5 5 6 7 7 7 9 10 10 9 10 10 9 10 10 10 8 8 6 5 4 1 2 3 6 8 10 14 17 20 22 24 24
19 18 18 17 16 16 16 15 14 13 10 8 6 5 6 7 6 8 9 9 9 9 11 11 11 11 12 12 11 13 10 9 8 6 6 3 8 8 11 14 17 20 24 25 24
24 22 21 20 20 19 19 19 18 17 15 13 10 9 8 9 9 10 11 11 10 10 11 11 12 14 14 13 13 14 15 13 11 10 8 8 10 12 13 15 18 20 23 25 26
29 28 26 25 22 21 20 20 21 21 19 16 17 15 14 14 13 14 15 15 15 13 14 15 12 14 14 13 15 14 15 15 15 13 11 12 13 14 16 16 20 22 25 27 28
32 32 31 30 28 27 25 23 25 25 24 24 23 23 22 20 20 19 19 20 20 18 17 16 16 14 15 14 13 14 15 15 15 14 13 12 15 15 16 19 20 24 26 28 30
34 34 34 33 32 32 31 30 30 29 29 30 31 31 30 28 26 25 24 24 23 23 22 20 18 17 17 18 16 15 15 17 16 13 12 13 15 16 19 20 22 25 27 29 30
33 35 35 35 35 35 34 34 34 33 33 34 34 35 34 33 31 29 28 28 26 24 24 24 22 21 20 18 18 17 16 15 17 16 12 11 16 18 19 21 22 25 29 31 32
34 34 34 35 36 36 36 36 36 34 35 34 36 37 35 33 33 32 32 31 29 28 27 26 27 25 23 22 21 20 19 19 17 17 14 10 13 17 19 22 23 26 29 33 34
33 33 34 35 35 36 36 36 37 36 36 35 34 35 34 32 32 33 35 34 32 30 29 29 29 27 27 26 25 23 21 22 22 20 19 14 15 17 19 22 24 26 29 32 36
38 36 33 32 34 35 36 37 37 36 36 38 38 37 36 34 34 35 36 36 35 34 33 32 33 30 30 29 28 27 26 26 26 25 24 20 8 16 17 19 22 27 31 33 35
39 38 37 36 36 35 34 35 36 36 36 37 37 37 38 38 39 38 38 38 39 39 40 38 39 36 35 35 33 33 31 31 31 29 26 26 14 16 19 21 26 32 35 36 37
41 42 41 41 41 40 39 38 38 38 38 38 39 40 39 40 40 41 41 41 40 41 42 43 43 42 40 41 40 39 38 38 39 37 35 34 27 22 24 27 31 31 34 37 39
38 41 42 43 42 42 43 44 43 44 44 44 44 44 44 44 44 44 45 45 45 45 44 45 45 45 44 43 44 44 44 45 46 43 45 38 40 32 36 33 31 32 33 36 39
40 39 39 41 44 45 45 45 46 47 47 48 47 46 47 50 51 50 49 48 48 49 50 51 51 51 50 48 48 48 47 47 46 46 50 48 48 47 41 40 38 37 36 35 37
38 39 38 41 43 44 46 47 48 49 50 51 52 51 51 50 50 50 52 54 53 53 53 54 55 56 55 55 55 55 52 51 51 53 54 54 55 53 49 46 45 44 42 40 38
Wind_Direction
27 18 14 7 350 349 348 347 9 14 6 317 214 217 210 259 322 334 336 338 341 345 337 324 300 288 288 297 289 275 243 216 207 202 205 209 207 205 205 206 211 215 211 224 223
33 35 28 22 8 356 354 344 3 27 38 53 62 139 246 310 328 338 341 342 346 352 350 341 320 307 308 310 311 279 212 202 202 201 204 206 206 203 205 205 209 220 211 217 222
27 24 18 15 14 4 354 343 353 18 22 12 31 23 348 327 332 342 345 344 348 352 357 353 342 328 318 322 311 269 200 199 204 203 205 205 205 201 205 210 212 226 218 215 217
7 1 360 3 7 10 5 349 318 326 336 344 331 317 315 321 324 348 341 343 346 351 357 359 352 333 320 320 319 263 215 208 208 206 205 206 205 202 203 217 216 228 227 216 213
324 334 346 354 360 5 9 343 327 299 310 322 328 320 316 309 314 335 336 339 341 348 357 357 354 344 328 317 322 278 234 221 219 207 204 207 206 205 209 222 218 226 232 217 212
310 321 335 342 350 354 3 3 315 303 292 304 314 323 320 313 316 324 333 334 337 347 350 356 357 348 338 322 316 299 260 229 218 216 208 207 212 208 221 226 215 228 238 221 211
296 308 318 331 338 344 351 2 352 297 292 290 301 312 323 323 323 318 328 332 338 345 349 351 2 353 345 329 311 296 272 226 215 220 215 213 215 214 226 215 211 232 236 223 210
287 299 310 319 324 335 342 347 352 339 293 289 296 305 320 330 321 320 319 325 335 340 346 350 360 3 348 340 322 302 276 245 222 224 224 220 216 218 226 227 228 233 236 225 207
286 296 304 313 317 326 335 343 346 348 332 289 293 300 303 322 319 320 324 326 330 334 341 346 357 6 7 1 334 300 289 256 227 222 223 222 222 216 219 225 232 233 234 221 205
291 293 299 305 306 318 326 328 336 340 346 323 293 300 307 310 311 315 319 325 326 325 335 337 345 2 6 8 16 358 314 277 234 217 222 212 229 212 221 224 228 228 230 216 199
287 291 295 297 298 300 315 317 316 329 341 345 320 307 307 307 310 314 310 310 315 321 325 323 329 332 341 351 358 7 18 20 209 224 228 217 232 232 222 221 220 225 216 208 202
285 288 293 292 295 297 302 305 299 307 316 345 355 350 321 322 325 321 316 309 308 308 309 310 310 305 307 310 321 330 337 354 35 181 197 197 233 229 220 216 216 211 204 201 205
286 285 285 287 292 293 294 293 285 285 284 301 327 352 2 4 5 338 328 317 315 310 302 301 298 292 288 286 290 292 299 298 294 270 242 219 235 208 199 205 200 201 201 202 208
285 284 280 279 282 287 287 285 280 273 276 279 293 314 325 349 0 2 351 344 337 312 305 304 302 301 294 284 276 279 276 276 278 267 255 222 247 224 212 212 208 206 203 206 210
280 278 276 274 275 275 275 276 274 274 274 278 276 286 285 312 317 331 335 339 337 332 324 324 312 302 295 295 288 273 272 271 267 267 257 248 221 247 227 222 218 211 209 212 216
276 276 275 274 272 272 270 268 269 268 268 268 272 279 277 287 293 302 311 313 316 316 314 314 310 315 318 300 286 289 279 271 270 265 257 248 243 227 240 228 222 216 215 218 221
274 273 273 272 272 269 269 267 264 263 266 268 273 275 278 280 284 292 295 296 297 300 299 302 306 304 306 316 308 289 284 283 273 270 263 249 241 239 233 231 229 223 220 222 226
274 273 272 272 272 271 268 266 265 266 266 267 269 272 276 280 284 287 288 284 283 285 287 288 287 291 295 299 301 303 288 282 281 276 262 254 247 237 230 227 230 228 226 225 228
277 275 273 270 268 267 266 266 267 266 267 270 271 272 275 278 279 279 279 280 281 277 276 279 280 281 284 287 290 291 299 294 282 278 273 258 248 240 231 227 226 230 230 229 230
281 279 277 274 271 269 267 265 265 265 267 268 269 271 273 275 276 275 276 276 274 273 271 271 273 277 278 277 277 281 285 287 288 283 271 258 249 242 241 238 233 230 234 234 233
283 283 281 276 273 272 271 270 268 267 267 269 271 272 274 274 273 272 274 273 271 270 268 267 265 268 270 273 273 272 272 275 278 281 280 262 256 255 248 244 241 238 237 238 237
283 282 280 280 279 276 272 270 270 269 268 268 268 269 270 271 271 270 271 270 270 269 266 265 267 264 266 267 268 268 268 268 271 273 276 279 258 266 256 250 247 244 241 240 240
278 279 278 277 276 275 275 273 270 268 268 267 269 270 270 269 268 268 268 269 270 270 270 268 267 265 263 264 264 267 268 268 268 268 267 268 277 263 255 254 254 247 245 244 244
279 278 277 276 276 274 273 270 270 268 267 267 267 266 266 269 269 270 268 268 267 267 269 270 269 267 265 266 264 264 265 267 266 265 266 264 264 260 265 254 251 252 248 247 248
280 277 276 276 272 272 272 271 272 270 268 267 266 266 267 267 266 265 268 269 268 267 267 267 267 268 267 265 265 264 264 265 267 269 267 266 266 260 252 256 260 260 256 252 249
278 276 276 274 272 272 270 270 271 272 272 272 271 269 268 266 265 266 266 265 265 267 268 268 268 267 267 267 265 264 264 265 266 266 267 267 265 262 259 256 255 255 257 257 255
281 280 279 277 273 272 270 269 268 268 268 269 269 269 269 267 267 268 267 266 266 266 266 265 267 267 267 269 267 265 265 263 263 263 263 264 263 264 262 260 257 255 255 254 255